Volver al catálogo

CZ-6A DEB

ActivoSSO
NORAD 56672·DEBRIS·🇨🇳 China

Lanzado Nov 11, 2022 desde Taiyuan Satellite Launch Center

Loading…

Próximos Pases (próximas 24 horas)

TLE

ActualizadoSource: Space-Track

Época: Sep 14, 2026, 07:23 UTC

1 56672U 22151AGY 26257.30785185  .00000326  00000-0  28769-3 0  9992
2 56672  98.9078 203.6950 0154128 235.2544 123.4020 13.86831993176580

Sigue CZ-6A DEB en tiempo real con AllMySat

Download on the App Store